Time,TemperatureF,DewpointF,PressureIn,WindDirection,WindDirectionDegrees,WindSpeedMPH,WindSpeedGustMPH,Humidity,HourlyPrecipIn,Conditions,Clouds,dailyrainin,SoftwareType,DateUTC
2013-10-12 00:01:00,62.0,56.1,30.00,NE,47,0.6,6.9,81,0.00,CLR,,0.00,WeatherDisplay:10.37,2013-10-12 04:01:00,
2013-10-12 00:02:00,62.0,56.1,30.00,NE,56,0.1,1.2,81,0.00,CLR,,0.00,WeatherDisplay:10.37,2013-10-12 04:02:00,
2013-10-12 00:07:00,61.8,55.9,30.00,ENE,64,2.8,6.9,81,0.00,CLR,,0.00,WeatherDisplay:10.37,2013-10-12 04:07:00,
2013-10-12 00:12:00,61.8,56.2,30.00,NE,41,0.0,6.9,82,0.00,CLR,,0.00,WeatherDisplay:10.37,2013-10-12 04:12:00,
2013-10-12 00:17:00,61.6,56.0,30.00,NE,34,0.0,0.0,82,0.00,CLR,,0.00,WeatherDisplay:10.37,2013-10-12 04:17:00,
2013-10-12 00:22:00,61.6,56.0,30.00,North,0,0.0,1.2,82,0.00,CLR,,0.00,WeatherDisplay:10.37,2013-10-12 04:22:00,
2013-10-12 00:27:00,61.5,56.0,30.01,North,0,0.2,4.0,82,0.00,CLR,,0.00,WeatherDisplay:10.37,2013-10-12 04:27:00,
2013-10-12 00:32:00,61.5,56.0,30.01,NE,40,0.8,2.3,82,0.00,CLR,,0.00,WeatherDisplay:10.37,2013-10-12 04:32:00,
2013-10-12 00:37:00,61.5,56.0,30.01,NNE,20,0.9,1.0,82,0.00,CLR,,0.00,WeatherDisplay:10.37,2013-10-12 04:37:00,
2013-10-12 00:42:00,61.5,55.6,30.01,NNE,14,0.0,2.3,81,0.00,CLR,,0.00,WeatherDisplay:10.37,2013-10-12 04:42:00,
2013-10-12 00:47:00,61.3,55.4,30.01,NNE,20,0.2,3.5,81,0.00,CLR,,0.00,WeatherDisplay:10.37,2013-10-12 04:47:00,
2013-10-12 00:52:00,61.3,55.4,30.01,North,356,2.8,3.5,81,0.00,CLR,,0.00,WeatherDisplay:10.37,2013-10-12 04:52:00,
2013-10-12 00:57:00,61.2,55.3,30.01,NNE,17,0.0,0.0,81,0.00,CLR,,0.00,WeatherDisplay:10.37,2013-10-12 04:57:00,
2013-10-12 01:02:00,61.2,55.7,30.01,North,10,0.2,4.6,82,0.00,CLR,,0.00,WeatherDisplay:10.37,2013-10-12 05:02:00,
2013-10-12 01:07:00,61.0,55.5,30.01,North,10,2.9,3.5,82,0.00,CLR,,0.00,WeatherDisplay:10.37,2013-10-12 05:07:00,
2013-10-12 01:12:00,60.9,55.4,30.01,NNE,16,0.5,4.6,82,0.00,CLR,,0.00,WeatherDisplay:10.37,2013-10-12 05:12:00,
2013-10-12 01:17:00,60.9,55.0,30.01,North,0,2.1,5.0,81,0.00,CLR,,0.00,WeatherDisplay:10.37,2013-10-12 05:17:00,
2013-10-12 01:22:00,60.7,54.8,30.01,North,0,1.2,2.3,81,0.00,CLR,,0.00,WeatherDisplay:10.37,2013-10-12 05:22:00,
2013-10-12 01:27:00,60.7,54.5,30.01,North,8,1.7,3.5,80,0.00,CLR,,0.00,WeatherDisplay:10.37,2013-10-12 05:27:00,
2013-10-12 01:32:00,60.5,54.0,30.01,North,3,2.5,3.5,79,0.00,CLR,,0.00,WeatherDisplay:10.37,2013-10-12 05:32:00,
2013-10-12 01:37:00,60.5,53.6,30.01,ENE,69,1.9,4.0,78,0.00,CLR,,0.00,WeatherDisplay:10.37,2013-10-12 05:37:00,
2013-10-12 01:42:00,60.5,52.5,30.01,North,0,0.3,5.8,75,0.00,CLR,,0.00,WeatherDisplay:10.37,2013-10-12 05:42:00,
2013-10-12 01:47:00,60.7,52.0,30.01,NE,52,1.2,8.1,73,0.00,CLR,,0.00,WeatherDisplay:10.37,2013-10-12 05:47:00,
2013-10-12 01:52:00,60.9,52.2,30.01,North,6,0.0,0.0,73,0.00,CLR,,0.00,WeatherDisplay:10.37,2013-10-12 05:52:00,
2013-10-12 01:57:00,60.9,52.2,30.01,ENE,66,2.0,6.9,73,0.00,CLR,,0.00,WeatherDisplay:10.37,2013-10-12 05:57:00,
2013-10-12 02:02:00,60.7,52.0,30.02,North,0,2.7,6.9,73,0.00,CLR,,0.00,WeatherDisplay:10.37,2013-10-12 06:02:00,
2013-10-12 02:07:00,60.7,52.0,30.01,NNE,16,4.4,4.6,73,0.00,CLR,,0.00,WeatherDisplay:10.37,2013-10-12 06:07:00,
2013-10-12 02:12:00,60.7,51.6,30.01,North,0,4.3,5.8,72,0.00,CLR,,0.00,WeatherDisplay:10.37,2013-10-12 06:12:00,
2013-10-12 02:17:00,60.7,51.2,30.02,NNE,20,3.0,5.8,71,0.00,CLR,,0.00,WeatherDisplay:10.37,2013-10-12 06:17:00,
2013-10-12 02:22:00,60.5,50.7,30.01,North,0,2.8,5.8,70,0.00,CLR,,0.00,WeatherDisplay:10.37,2013-10-12 06:22:00,
2013-10-12 02:27:00,60.5,50.7,30.01,NE,37,1.6,3.5,70,0.00,CLR,,0.00,WeatherDisplay:10.37,2013-10-12 06:27:00,
2013-10-12 02:32:00,60.4,50.6,30.01,NE,35,2.6,11.5,70,0.00,CLR,,0.00,WeatherDisplay:10.37,2013-10-12 06:32:00,
2013-10-12 02:37:00,60.4,50.6,30.01,ENE,72,3.2,8.1,70,0.00,CLR,,0.00,WeatherDisplay:10.37,2013-10-12 06:37:00,
2013-10-12 02:42:00,60.2,50.4,30.01,ENE,64,2.5,5.8,70,0.00,CLR,,0.00,WeatherDisplay:10.37,2013-10-12 06:42:00,
2013-10-12 02:47:00,60.1,50.3,30.01,North,7,4.2,10.4,70,0.00,CLR,,0.00,WeatherDisplay:10.37,2013-10-12 06:47:00,
2013-10-12 02:52:00,59.9,50.1,30.01,NE,37,4.9,6.0,70,0.00,CLR,,0.00,WeatherDisplay:10.37,2013-10-12 06:52:00,
2013-10-12 02:57:00,59.8,50.4,30.01,North,0,2.2,4.6,71,0.00,CLR,,0.00,WeatherDisplay:10.37,2013-10-12 06:57:00,
2013-10-12 03:02:00,59.6,50.6,30.02,NNE,16,0.7,6.0,72,0.00,CLR,,0.00,WeatherDisplay:10.37,2013-10-12 07:02:00,
2013-10-12 03:07:00,59.5,50.5,30.02,ENE,71,3.5,5.8,72,0.00,CLR,,0.00,WeatherDisplay:10.37,2013-10-12 07:07:00,
2013-10-12 03:12:00,59.5,50.1,30.02,NNE,27,2.0,6.9,71,0.00,CLR,,0.00,WeatherDisplay:10.37,2013-10-12 07:12:00,
2013-10-12 03:17:00,59.3,49.9,30.02,North,6,0.2,5.8,71,0.00,CLR,,0.00,WeatherDisplay:10.37,2013-10-12 07:17:00,
2013-10-12 03:22:00,59.3,49.9,30.02,North,0,1.6,6.0,71,0.00,CLR,,0.00,WeatherDisplay:10.37,2013-10-12 07:22:00,
2013-10-12 03:27:00,59.3,49.5,30.02,North,0,5.1,8.1,70,0.00,CLR,,0.00,WeatherDisplay:10.37,2013-10-12 07:27:00,
2013-10-12 03:32:00,59.3,49.5,30.02,North,0,3.2,10.0,70,0.00,CLR,,0.00,WeatherDisplay:10.37,2013-10-12 07:32:00,
2013-10-12 03:37:00,59.2,49.4,30.02,NNE,16,3.3,6.0,70,0.00,CLR,,0.00,WeatherDisplay:10.37,2013-10-12 07:37:00,
2013-10-12 03:42:00,59.2,49.0,30.02,North,0,2.9,4.6,69,0.00,CLR,,0.00,WeatherDisplay:10.37,2013-10-12 07:42:00,
2013-10-12 03:47:00,59.2,49.0,30.02,North,10,5.0,8.0,69,0.00,CLR,,0.00,WeatherDisplay:10.37,2013-10-12 07:47:00,
2013-10-12 03:52:00,59.0,48.1,30.02,North,0,4.4,8.1,67,0.00,CLR,,0.00,WeatherDisplay:10.37,2013-10-12 07:52:00,
2013-10-12 03:57:00,59.0,47.7,30.02,North,359,6.0,11.5,66,0.00,CLR,,0.00,WeatherDisplay:10.37,2013-10-12 07:57:00,
2013-10-12 04:02:00,59.0,47.2,30.02,North,0,4.7,5.8,65,0.00,CLR,,0.00,WeatherDisplay:10.37,2013-10-12 08:02:00,
2013-10-12 04:07:00,58.9,47.2,30.02,North,0,2.8,9.2,65,0.00,CLR,,0.00,WeatherDisplay:10.37,2013-10-12 08:07:00,
2013-10-12 04:12:00,58.9,46.7,30.03,North,0,3.9,6.0,64,0.00,CLR,,0.00,WeatherDisplay:10.37,2013-10-12 08:12:00,
2013-10-12 04:17:00,58.7,46.1,30.03,NNE,13,2.5,5.8,63,0.00,CLR,,0.00,WeatherDisplay:10.37,2013-10-12 08:17:00,
2013-10-12 04:22:00,58.7,46.1,30.03,NNE,16,0.3,3.5,63,0.00,CLR,,0.00,WeatherDisplay:10.37,2013-10-12 08:22:00,
2013-10-12 04:27:00,58.6,45.6,30.03,NNE,13,3.4,8.1,62,0.00,CLR,,0.00,WeatherDisplay:10.37,2013-10-12 08:27:00,
2013-10-12 04:32:00,58.4,45.4,30.03,North,0,0.0,0.0,62,0.00,CLR,,0.00,WeatherDisplay:10.37,2013-10-12 08:32:00,
2013-10-12 04:37:00,58.4,45.0,30.03,North,10,2.7,4.6,61,0.00,CLR,,0.00,WeatherDisplay:10.37,2013-10-12 08:37:00,
2013-10-12 04:42:00,58.3,44.5,30.03,NNE,28,0.0,2.3,60,0.00,CLR,,0.00,WeatherDisplay:10.37,2013-10-12 08:42:00,
2013-10-12 04:47:00,58.1,44.3,30.04,North,359,1.4,4.6,60,0.00,CLR,,0.00,WeatherDisplay:10.37,2013-10-12 08:47:00,
2013-10-12 04:52:00,58.0,43.3,30.04,North,6,3.9,6.9,58,0.00,CLR,,0.00,WeatherDisplay:10.37,2013-10-12 08:52:00,
2013-10-12 04:57:00,58.0,42.8,30.04,North,356,4.4,8.1,57,0.00,CLR,,0.00,WeatherDisplay:10.37,2013-10-12 08:57:00,
2013-10-12 05:02:00,58.0,42.8,30.04,North,0,6.0,9.2,57,0.00,CLR,,0.00,WeatherDisplay:10.37,2013-10-12 09:02:00,
2013-10-12 05:07:00,58.0,42.4,30.04,NE,41,0.2,5.8,56,0.00,CLR,,0.00,WeatherDisplay:10.37,2013-10-12 09:07:00,
2013-10-12 05:12:00,58.0,42.8,30.04,North,0,0.0,3.5,57,0.00,CLR,,0.00,WeatherDisplay:10.37,2013-10-12 09:12:00,
2013-10-12 05:17:00,57.8,42.7,30.04,NNE,21,1.7,2.0,57,0.00,CLR,,0.00,WeatherDisplay:10.37,2013-10-12 09:17:00,
2013-10-12 05:22:00,57.8,42.2,30.05,NNE,16,0.4,3.5,56,0.00,CLR,,0.00,WeatherDisplay:10.37,2013-10-12 09:22:00,
2013-10-12 05:27:00,57.6,42.0,30.05,NNE,30,2.1,3.5,56,0.00,CLR,,0.00,WeatherDisplay:10.37,2013-10-12 09:27:00,
2013-10-12 05:32:00,57.5,42.4,30.05,NNE,28,2.4,5.0,57,0.00,CLR,,0.00,WeatherDisplay:10.37,2013-10-12 09:32:00,
2013-10-12 05:37:00,57.5,41.9,30.05,NE,47,0.0,3.5,56,0.00,CLR,,0.00,WeatherDisplay:10.37,2013-10-12 09:37:00,
2013-10-12 05:42:00,57.3,42.2,30.05,NNE,16,1.2,2.3,57,0.00,CLR,,0.00,WeatherDisplay:10.37,2013-10-12 09:42:00,
2013-10-12 05:47:00,57.3,41.7,30.05,NNE,16,1.0,3.5,56,0.00,CLR,,0.00,WeatherDisplay:10.37,2013-10-12 09:47:00,
2013-10-12 05:52:00,57.2,42.1,30.05,North,1,2.1,3.5,57,0.00,CLR,,0.00,WeatherDisplay:10.37,2013-10-12 09:52:00,
2013-10-12 05:57:00,57.0,41.9,30.05,NNE,25,2.9,3.5,57,0.00,CLR,,0.00,WeatherDisplay:10.37,2013-10-12 09:57:00,
2013-10-12 06:02:00,56.9,41.8,30.05,North,0,3.9,6.0,57,0.00,CLR,,0.00,WeatherDisplay:10.37,2013-10-12 10:02:00,
2013-10-12 06:07:00,56.7,41.6,30.05,North,10,3.2,4.6,57,0.00,CLR,,0.00,WeatherDisplay:10.37,2013-10-12 10:07:00,
2013-10-12 06:12:00,56.7,41.6,30.05,NNE,13,1.1,2.3,57,0.00,CLR,,0.00,WeatherDisplay:10.37,2013-10-12 10:12:00,
2013-10-12 06:17:00,56.7,41.2,30.05,NNE,14,2.0,3.5,56,0.00,CLR,,0.00,WeatherDisplay:10.37,2013-10-12 10:17:00,
2013-10-12 06:22:00,56.6,41.1,30.05,NNW,346,0.1,2.0,56,0.00,CLR,,0.00,WeatherDisplay:10.37,2013-10-12 10:22:00,
2013-10-12 06:27:00,56.5,41.0,30.05,NE,35,0.8,4.6,56,0.00,CLR,,0.00,WeatherDisplay:10.37,2013-10-12 10:27:00,
2013-10-12 06:32:00,56.5,41.0,30.05,NE,34,2.0,4.6,56,0.00,CLR,,0.00,WeatherDisplay:10.37,2013-10-12 10:32:00,
2013-10-12 06:37:00,56.5,40.5,30.05,ENE,69,2.4,4.6,55,0.00,CLR,,0.00,WeatherDisplay:10.37,2013-10-12 10:37:00,
2013-10-12 06:42:00,56.5,41.0,30.05,North,359,0.0,0.0,56,0.00,CLR,,0.00,WeatherDisplay:10.37,2013-10-12 10:42:00,
2013-10-12 06:47:00,56.3,40.8,30.05,North,11,3.8,7.0,56,0.00,CLR,,0.00,WeatherDisplay:10.37,2013-10-12 10:47:00,
2013-10-12 06:52:00,56.3,40.8,30.05,North,356,4.5,5.8,56,0.00,CLR,,0.00,WeatherDisplay:10.37,2013-10-12 10:52:00,
2013-10-12 06:57:00,56.2,40.7,30.06,North,0,3.5,8.1,56,0.00,CLR,,0.00,WeatherDisplay:10.37,2013-10-12 10:57:00,
2013-10-12 07:02:00,56.2,40.7,30.06,North,0,2.8,4.6,56,0.00,CLR,,0.00,WeatherDisplay:10.37,2013-10-12 11:02:00,
2013-10-12 07:07:00,55.9,40.9,30.06,North,1,1.5,3.5,57,0.00,CLR,,0.00,WeatherDisplay:10.37,2013-10-12 11:07:00,
2013-10-12 07:12:00,55.7,40.2,30.06,NE,37,2.4,3.5,56,0.00,CLR,,0.00,WeatherDisplay:10.37,2013-10-12 11:12:00,
2013-10-12 07:17:00,55.7,40.7,30.06,ENE,64,2.2,2.3,57,0.00,CLR,,0.00,WeatherDisplay:10.37,2013-10-12 11:17:00,
2013-10-12 07:22:00,55.7,40.7,30.06,ENE,59,0.6,5.8,57,0.00,CLR,,0.00,WeatherDisplay:10.37,2013-10-12 11:22:00,
2013-10-12 07:27:00,55.6,40.6,30.06,NNE,30,2.9,4.6,57,0.00,CLR,,0.00,WeatherDisplay:10.37,2013-10-12 11:27:00,
2013-10-12 07:32:00,55.6,41.0,30.06,NNE,14,0.0,2.3,58,0.00,CLR,,0.00,WeatherDisplay:10.37,2013-10-12 11:32:00,
2013-10-12 07:37:00,55.4,40.9,30.06,NE,34,2.5,5.8,58,0.00,CLR,,0.00,WeatherDisplay:10.37,2013-10-12 11:37:00,
2013-10-12 07:42:00,55.4,40.9,30.07,NNE,30,4.0,6.9,58,0.00,CLR,,0.00,WeatherDisplay:10.37,2013-10-12 11:42:00,
2013-10-12 07:47:00,55.6,41.0,30.07,NNE,28,4.6,6.0,58,0.00,CLR,,0.00,WeatherDisplay:10.37,2013-10-12 11:47:00,
2013-10-12 07:52:00,55.6,41.0,30.07,NE,44,0.0,8.1,58,0.00,CLR,,0.00,WeatherDisplay:10.37,2013-10-12 11:52:00,
2013-10-12 07:57:00,55.4,41.3,30.07,NE,37,4.2,10.4,59,0.00,CLR,,0.00,WeatherDisplay:10.37,2013-10-12 11:57:00,
2013-10-12 08:03:00,55.4,41.3,30.08,ENE,73,1.4,3.5,59,0.00,CLR,,0.00,WeatherDisplay:10.37,2013-10-12 12:03:00,
2013-10-12 08:08:00,55.3,42.1,30.08,ENE,65,0.4,3.5,61,0.00,CLR,,0.00,WeatherDisplay:10.37,2013-10-12 12:08:00,
2013-10-12 08:13:00,55.1,42.3,30.08,NE,42,1.7,3.5,62,0.00,CLR,,0.00,WeatherDisplay:10.37,2013-10-12 12:13:00,
2013-10-12 08:18:00,55.1,42.3,30.08,NE,41,0.0,0.0,62,0.00,CLR,,0.00,WeatherDisplay:10.37,2013-10-12 12:18:00,
2013-10-12 08:23:00,55.3,42.5,30.08,NE,47,0.3,2.3,62,0.00,CLR,,0.00,WeatherDisplay:10.37,2013-10-12 12:23:00,
2013-10-12 08:28:00,55.4,42.6,30.08,NNE,21,1.5,4.6,62,0.00,CLR,,0.00,WeatherDisplay:10.37,2013-10-12 12:28:00,
2013-10-12 08:33:00,55.7,42.5,30.08,NE,38,1.0,3.5,61,0.00,CLR,,0.00,WeatherDisplay:10.37,2013-10-12 12:33:00,
2013-10-12 08:38:00,55.9,42.6,30.08,NE,54,3.1,4.6,61,0.00,CLR,,0.00,WeatherDisplay:10.37,2013-10-12 12:38:00,
2013-10-12 08:43:00,56.0,42.7,30.08,NE,47,2.4,3.5,61,0.00,CLR,,0.00,WeatherDisplay:10.37,2013-10-12 12:43:00,
2013-10-12 08:48:00,56.0,42.3,30.09,North,1,1.6,3.5,60,0.00,CLR,,0.00,WeatherDisplay:10.37,2013-10-12 12:48:00,
2013-10-12 08:53:00,56.2,42.5,30.09,ENE,58,2.6,3.5,60,0.00,CLR,,0.00,WeatherDisplay:10.37,2013-10-12 12:53:00,
2013-10-12 08:58:00,56.2,42.5,30.09,North,352,2.3,4.6,60,0.00,CLR,,0.00,WeatherDisplay:10.37,2013-10-12 12:58:00,
2013-10-12 09:03:00,56.3,42.1,30.09,NNE,18,4.4,9.2,59,0.00,CLR,,0.00,WeatherDisplay:10.37,2013-10-12 13:03:00,
2013-10-12 09:08:00,56.5,42.3,30.09,NE,40,4.9,6.9,59,0.00,CLR,,0.00,WeatherDisplay:10.37,2013-10-12 13:08:00,
2013-10-12 09:13:00,56.7,42.5,30.09,North,1,2.0,6.9,59,0.00,CLR,,0.00,WeatherDisplay:10.37,2013-10-12 13:13:00,
2013-10-12 09:18:00,56.9,41.8,30.09,NNE,20,4.5,6.9,57,0.00,CLR,,0.00,WeatherDisplay:10.37,2013-10-12 13:18:00,
2013-10-12 09:23:00,57.3,42.2,30.09,North,357,3.9,6.0,57,0.00,CLR,,0.00,WeatherDisplay:10.37,2013-10-12 13:23:00,
2013-10-12 09:28:00,58.0,41.9,30.09,North,357,4.4,9.0,55,0.00,CLR,,0.00,WeatherDisplay:10.37,2013-10-12 13:28:00,
2013-10-12 09:33:00,58.6,41.5,30.09,North,0,5.5,9.2,53,0.00,CLR,,0.00,WeatherDisplay:10.37,2013-10-12 13:33:00,
2013-10-12 09:38:00,58.6,41.5,30.09,North,354,5.7,7.0,53,0.00,CLR,,0.00,WeatherDisplay:10.37,2013-10-12 13:38:00,
2013-10-12 09:43:00,58.4,41.8,30.09,North,0,5.7,8.1,54,0.00,CLR,,0.00,WeatherDisplay:10.37,2013-10-12 13:43:00,
2013-10-12 09:48:00,58.4,41.8,30.09,North,0,3.8,6.9,54,0.00,CLR,,0.00,WeatherDisplay:10.37,2013-10-12 13:48:00,
2013-10-12 09:53:00,58.6,42.5,30.10,North,0,3.3,5.8,55,0.00,CLR,,0.00,WeatherDisplay:10.37,2013-10-12 13:53:00,
2013-10-12 09:58:00,58.7,42.1,30.10,NNE,14,3.0,5.0,54,0.00,CLR,,0.00,WeatherDisplay:10.37,2013-10-12 13:58:00,
2013-10-12 10:03:00,59.0,41.9,30.10,North,6,3.7,9.2,53,0.00,CLR,,0.00,WeatherDisplay:10.37,2013-10-12 14:03:00,
2013-10-12 10:08:00,59.3,42.6,30.10,NE,40,4.1,6.9,54,0.00,CLR,,0.00,WeatherDisplay:10.37,2013-10-12 14:08:00,
2013-10-12 10:13:00,59.8,42.6,30.10,NE,34,2.6,5.0,53,0.00,CLR,,0.00,WeatherDisplay:10.37,2013-10-12 14:13:00,
2013-10-12 10:18:00,60.2,43.0,30.10,NNE,17,1.5,3.5,53,0.00,CLR,,0.00,WeatherDisplay:10.37,2013-10-12 14:18:00,
2013-10-12 10:23:00,60.9,42.6,30.11,North,0,4.0,6.9,51,0.00,CLR,,0.00,WeatherDisplay:10.37,2013-10-12 14:23:00,
2013-10-12 10:28:00,61.2,41.9,30.11,NNE,13,3.6,4.6,49,0.00,CLR,,0.00,WeatherDisplay:10.37,2013-10-12 14:28:00,
2013-10-12 10:33:00,61.8,41.9,30.11,North,11,2.6,4.6,48,0.00,CLR,,0.00,WeatherDisplay:10.37,2013-10-12 14:33:00,
2013-10-12 10:38:00,62.4,41.3,30.11,North,0,4.4,9.2,46,0.00,CLR,,0.00,WeatherDisplay:10.37,2013-10-12 14:38:00,
2013-10-12 10:43:00,63.1,41.4,30.11,North,0,3.1,4.6,45,0.00,CLR,,0.00,WeatherDisplay:10.37,2013-10-12 14:43:00,
2013-10-12 10:48:00,63.2,40.9,30.11,NNE,14,4.9,8.1,44,0.00,CLR,,0.00,WeatherDisplay:10.37,2013-10-12 14:48:00,
2013-10-12 10:53:00,63.1,42.0,30.11,NNE,31,4.0,6.9,46,0.00,CLR,,0.00,WeatherDisplay:10.37,2013-10-12 14:53:00,
2013-10-12 10:58:00,63.1,41.4,30.11,North,0,2.8,5.8,45,0.00,CLR,,0.00,WeatherDisplay:10.37,2013-10-12 14:58:00,
2013-10-12 11:03:00,63.9,40.3,30.11,North,7,4.5,6.9,42,0.00,CLR,,0.00,WeatherDisplay:10.37,2013-10-12 15:03:00,
2013-10-12 11:08:00,63.7,40.2,30.11,North,0,8.9,12.7,42,0.00,CLR,,0.00,WeatherDisplay:10.37,2013-10-12 15:08:00,
2013-10-12 11:13:00,63.5,41.2,30.12,NNW,346,4.1,5.8,44,0.00,CLR,,0.00,WeatherDisplay:10.37,2013-10-12 15:13:00,
2013-10-12 11:18:00,64.0,42.8,30.12,North,7,0.0,0.0,46,0.00,CLR,,0.00,WeatherDisplay:10.37,2013-10-12 15:18:00,
2013-10-12 11:23:00,64.8,42.4,30.12,North,0,1.8,5.8,44,0.00,CLR,,0.00,WeatherDisplay:10.37,2013-10-12 15:23:00,
2013-10-12 11:28:00,65.6,42.5,30.11,NNE,28,4.3,5.8,43,0.00,CLR,,0.00,WeatherDisplay:10.37,2013-10-12 15:28:00,
2013-10-12 11:33:00,66.1,40.4,30.11,NE,40,3.7,6.9,39,0.00,CLR,,0.00,WeatherDisplay:10.37,2013-10-12 15:33:00,
2013-10-12 11:38:00,66.1,39.1,30.11,ENE,73,2.1,4.6,37,0.00,CLR,,0.00,WeatherDisplay:10.37,2013-10-12 15:38:00,
2013-10-12 11:43:00,66.9,38.3,30.11,NE,49,3.9,7.0,35,0.00,CLR,,0.00,WeatherDisplay:10.37,2013-10-12 15:43:00,
2013-10-12 11:48:00,66.9,38.3,30.11,ENE,66,6.9,11.5,35,0.00,CLR,,0.00,WeatherDisplay:10.37,2013-10-12 15:48:00,
2013-10-12 11:53:00,66.6,38.8,30.11,East,80,8.0,12.7,36,0.00,CLR,,0.00,WeatherDisplay:10.37,2013-10-12 15:53:00,
2013-10-12 11:58:00,66.9,41.1,30.11,ENE,66,6.8,12.7,39,0.00,CLR,,0.00,WeatherDisplay:10.37,2013-10-12 15:58:00,
2013-10-12 12:03:00,67.4,40.2,30.11,NE,37,5.5,8.1,37,0.00,CLR,,0.00,WeatherDisplay:10.37,2013-10-12 16:03:00,
2013-10-12 12:08:00,68.1,42.2,30.11,ENE,71,6.5,10.4,39,0.00,CLR,,0.00,WeatherDisplay:10.37,2013-10-12 16:08:00,
2013-10-12 12:13:00,67.9,42.7,30.11,NE,56,3.3,10.4,40,0.00,CLR,,0.00,WeatherDisplay:10.37,2013-10-12 16:13:00,
2013-10-12 12:18:00,67.8,43.2,30.11,ENE,62,3.9,16.1,41,0.00,CLR,,0.00,WeatherDisplay:10.37,2013-10-12 16:18:00,
2013-10-12 12:23:00,67.6,43.7,30.11,East,79,4.3,11.5,42,0.00,CLR,,0.00,WeatherDisplay:10.37,2013-10-12 16:23:00,
2013-10-12 12:28:00,67.4,43.5,30.10,East,85,7.2,13.8,42,0.00,CLR,,0.00,WeatherDisplay:10.37,2013-10-12 16:28:00,
2013-10-12 12:33:00,66.9,44.3,30.10,ENE,62,4.9,6.9,44,0.00,CLR,,0.00,WeatherDisplay:10.37,2013-10-12 16:33:00,
2013-10-12 12:38:00,66.6,43.4,30.10,ENE,58,10.5,11.5,43,0.00,CLR,,0.00,WeatherDisplay:10.37,2013-10-12 16:38:00,
2013-10-12 12:43:00,67.1,44.4,30.10,ENE,68,5.3,11.5,44,0.00,CLR,,0.00,WeatherDisplay:10.37,2013-10-12 16:43:00,
2013-10-12 12:48:00,67.9,44.6,30.09,NE,34,2.3,6.9,43,0.00,CLR,,0.00,WeatherDisplay:10.37,2013-10-12 16:48:00,
2013-10-12 12:53:00,68.8,45.4,30.09,North,10,5.0,12.0,43,0.00,CLR,,0.00,WeatherDisplay:10.37,2013-10-12 16:53:00,
2013-10-12 12:58:00,67.9,44.0,30.09,NNE,17,6.7,8.1,42,0.00,CLR,,0.00,WeatherDisplay:10.37,2013-10-12 16:58:00,
2013-10-12 13:03:00,67.4,43.5,30.09,East,79,5.4,12.7,42,0.00,CLR,,0.00,WeatherDisplay:10.37,2013-10-12 17:03:00,
2013-10-12 13:08:00,67.6,43.1,30.08,SSE,151,6.6,12.7,41,0.00,CLR,,0.00,WeatherDisplay:10.37,2013-10-12 17:08:00,
2013-10-12 13:13:00,68.9,45.5,30.08,East,86,4.0,11.5,43,0.00,CLR,,0.00,WeatherDisplay:10.37,2013-10-12 17:13:00,
2013-10-12 13:18:00,69.3,44.6,30.08,ENE,61,6.5,6.9,41,0.00,CLR,,0.00,WeatherDisplay:10.37,2013-10-12 17:18:00,
2013-10-12 13:23:00,69.3,43.9,30.08,NE,51,9.6,17.0,40,0.00,CLR,,0.00,WeatherDisplay:10.37,2013-10-12 17:23:00,
2013-10-12 13:28:00,69.6,44.8,30.08,East,83,4.9,11.5,41,0.00,CLR,,0.00,WeatherDisplay:10.37,2013-10-12 17:28:00,
2013-10-12 13:33:00,69.9,45.1,30.08,East,90,9.2,13.0,41,0.00,CLR,,0.00,WeatherDisplay:10.37,2013-10-12 17:33:00,
2013-10-12 13:38:00,69.1,44.4,30.08,East,79,6.7,11.5,41,0.00,CLR,,0.00,WeatherDisplay:10.37,2013-10-12 17:38:00,
2013-10-12 13:43:00,69.3,45.8,30.08,ENE,76,6.7,10.4,43,0.00,CLR,,0.00,WeatherDisplay:10.37,2013-10-12 17:43:00,
2013-10-12 13:48:00,69.1,45.7,30.08,East,95,8.8,11.5,43,0.00,CLR,,0.00,WeatherDisplay:10.37,2013-10-12 17:48:00,
2013-10-12 13:53:00,69.1,44.4,30.08,ENE,62,9.3,12.7,41,0.00,CLR,,0.00,WeatherDisplay:10.37,2013-10-12 17:53:00,
2013-10-12 13:58:00,68.9,44.9,30.08,NE,42,6.7,11.5,42,0.00,CLR,,0.00,WeatherDisplay:10.37,2013-10-12 17:58:00,
2013-10-12 14:03:00,68.8,44.8,30.08,East,93,3.5,6.9,42,0.00,CLR,,0.00,WeatherDisplay:10.37,2013-10-12 18:03:00,
2013-10-12 14:08:00,69.4,45.3,30.08,ENE,71,2.6,11.5,42,0.00,CLR,,0.00,WeatherDisplay:10.37,2013-10-12 18:08:00,
2013-10-12 14:13:00,69.4,45.3,30.08,East,85,5.0,10.4,42,0.00,CLR,,0.00,WeatherDisplay:10.37,2013-10-12 18:13:00,
2013-10-12 14:18:00,69.4,45.9,30.08,North,7,5.8,11.5,43,0.00,CLR,,0.00,WeatherDisplay:10.37,2013-10-12 18:18:00,
2013-10-12 14:23:00,69.3,45.2,30.09,East,100,6.2,11.5,42,0.00,CLR,,0.00,WeatherDisplay:10.37,2013-10-12 18:23:00,
2013-10-12 14:28:00,70.1,45.3,30.08,East,99,6.0,11.5,41,0.00,CLR,,0.00,WeatherDisplay:10.37,2013-10-12 18:28:00,
2013-10-12 14:33:00,70.6,45.1,30.08,East,83,4.6,10.0,40,0.00,CLR,,0.00,WeatherDisplay:10.37,2013-10-12 18:33:00,
2013-10-12 14:38:00,70.8,45.3,30.09,East,79,7.4,12.7,40,0.00,CLR,,0.00,WeatherDisplay:10.37,2013-10-12 18:38:00,
2013-10-12 14:43:00,70.8,45.3,30.09,ENE,66,2.6,6.9,40,0.00,CLR,,0.00,WeatherDisplay:10.37,2013-10-12 18:43:00,
2013-10-12 14:48:00,70.9,44.0,30.09,North,4,2.4,11.5,38,0.00,CLR,,0.00,WeatherDisplay:10.37,2013-10-12 18:48:00,
2013-10-12 14:53:00,71.1,44.9,30.09,East,97,2.4,3.5,39,0.00,CLR,,0.00,WeatherDisplay:10.37,2013-10-12 18:53:00,
2013-10-12 14:58:00,70.8,39.5,30.09,ESE,103,8.4,12.0,32,0.00,CLR,,0.00,WeatherDisplay:10.37,2013-10-12 18:58:00,
2013-10-12 15:03:00,70.8,37.8,30.09,SSE,165,2.5,6.9,30,0.00,CLR,,0.00,WeatherDisplay:10.37,2013-10-12 19:03:00,
2013-10-12 15:08:00,71.1,36.3,30.10,ESE,116,2.7,10.4,28,0.00,CLR,,0.00,WeatherDisplay:10.37,2013-10-12 19:08:00,
2013-10-12 15:13:00,71.5,37.6,30.09,SSE,147,0.7,6.9,29,0.00,CLR,,0.00,WeatherDisplay:10.37,2013-10-12 19:13:00,
2013-10-12 15:18:00,71.6,38.5,30.09,ENE,58,3.7,6.0,30,0.00,CLR,,0.00,WeatherDisplay:10.37,2013-10-12 19:18:00,
2013-10-12 15:23:00,70.9,34.3,30.10,East,95,8.1,18.4,26,0.00,CLR,,0.00,WeatherDisplay:10.37,2013-10-12 19:23:00,
2013-10-12 15:28:00,70.8,35.1,30.10,East,86,1.8,8.1,27,0.00,CLR,,0.00,WeatherDisplay:10.37,2013-10-12 19:28:00,
2013-10-12 15:33:00,70.8,35.1,30.10,ENE,76,3.2,13.8,27,0.00,CLR,,0.00,WeatherDisplay:10.37,2013-10-12 19:33:00,
2013-10-12 15:38:00,70.6,35.9,30.10,NE,54,2.0,5.8,28,0.00,CLR,,0.00,WeatherDisplay:10.37,2013-10-12 19:38:00,
2013-10-12 15:43:00,70.4,31.9,30.10,ENE,73,6.4,10.4,24,0.00,CLR,,0.00,WeatherDisplay:10.37,2013-10-12 19:43:00,
2013-10-12 15:48:00,70.3,34.7,30.10,East,80,8.7,13.8,27,0.00,CLR,,0.00,WeatherDisplay:10.37,2013-10-12 19:48:00,
2013-10-12 15:53:00,70.1,31.6,30.10,ENE,71,8.4,13.8,24,0.00,CLR,,0.00,WeatherDisplay:10.37,2013-10-12 19:53:00,
2013-10-12 15:58:00,70.1,31.6,30.10,East,79,0.5,4.0,24,0.00,CLR,,0.00,WeatherDisplay:10.37,2013-10-12 19:58:00,
2013-10-12 16:03:00,70.1,31.6,30.10,ESE,102,6.0,8.1,24,0.00,CLR,,0.00,WeatherDisplay:10.37,2013-10-12 20:03:00,
2013-10-12 16:08:00,69.9,31.4,30.10,East,90,4.8,7.0,24,0.00,CLR,,0.00,WeatherDisplay:10.37,2013-10-12 20:08:00,
2013-10-12 16:13:00,69.6,33.2,30.10,East,83,7.2,12.7,26,0.00,CLR,,0.00,WeatherDisplay:10.37,2013-10-12 20:13:00,
2013-10-12 16:18:00,69.6,33.2,30.10,SE,131,13.8,19.6,26,0.00,CLR,,0.00,WeatherDisplay:10.37,2013-10-12 20:18:00,
2013-10-12 16:23:00,69.1,34.6,30.11,ESE,103,10.7,12.7,28,0.00,CLR,,0.00,WeatherDisplay:10.37,2013-10-12 20:23:00,
2013-10-12 16:28:00,69.3,34.8,30.11,East,93,4.7,12.7,28,0.00,CLR,,0.00,WeatherDisplay:10.37,2013-10-12 20:28:00,
2013-10-12 16:33:00,69.4,37.4,30.11,East,80,1.9,4.0,31,0.00,CLR,,0.00,WeatherDisplay:10.37,2013-10-12 20:33:00,
2013-10-12 16:38:00,69.3,38.2,30.11,ESE,112,3.8,4.6,32,0.00,CLR,,0.00,WeatherDisplay:10.37,2013-10-12 20:38:00,
2013-10-12 16:43:00,68.9,39.4,30.11,East,83,3.1,11.5,34,0.00,CLR,,0.00,WeatherDisplay:10.37,2013-10-12 20:43:00,
2013-10-12 16:48:00,68.9,41.5,30.11,SSE,148,0.8,8.1,37,0.00,CLR,,0.00,WeatherDisplay:10.37,2013-10-12 20:48:00,
2013-10-12 16:53:00,68.6,42.6,30.11,ENE,62,6.7,18.4,39,0.00,CLR,,0.00,WeatherDisplay:10.37,2013-10-12 20:53:00,
2013-10-12 16:58:00,68.4,43.8,30.12,East,95,4.7,5.8,41,0.00,CLR,,0.00,WeatherDisplay:10.37,2013-10-12 20:58:00,
2013-10-12 17:03:00,68.4,45.0,30.12,East,90,8.2,13.0,43,0.00,CLR,,0.00,WeatherDisplay:10.37,2013-10-12 21:03:00,
2013-10-12 17:08:00,68.3,46.1,30.12,SE,145,2.2,9.2,45,0.00,CLR,,0.00,WeatherDisplay:10.37,2013-10-12 21:08:00,
2013-10-12 17:13:00,68.1,46.5,30.12,East,85,3.2,9.2,46,0.00,CLR,,0.00,WeatherDisplay:10.37,2013-10-12 21:13:00,
2013-10-12 17:18:00,67.8,47.4,30.12,ESE,117,2.6,6.9,48,0.00,CLR,,0.00,WeatherDisplay:10.37,2013-10-12 21:18:00,
2013-10-12 17:23:00,67.4,48.1,30.12,East,99,4.7,8.1,50,0.00,CLR,,0.00,WeatherDisplay:10.37,2013-10-12 21:23:00,
2013-10-12 17:28:00,67.3,48.5,30.12,SE,145,0.8,8.1,51,0.00,CLR,,0.00,WeatherDisplay:10.37,2013-10-12 21:28:00,
2013-10-12 17:33:00,66.9,48.7,30.12,East,96,9.4,17.3,52,0.00,CLR,,0.00,WeatherDisplay:10.37,2013-10-12 21:33:00,
2013-10-12 17:38:00,66.8,49.6,30.13,ENE,75,2.2,12.0,54,0.00,CLR,,0.00,WeatherDisplay:10.37,2013-10-12 21:38:00,
2013-10-12 17:43:00,66.6,49.4,30.13,East,85,6.6,16.0,54,0.00,CLR,,0.00,WeatherDisplay:10.37,2013-10-12 21:43:00,
2013-10-12 17:48:00,66.6,49.9,30.13,NE,40,2.0,12.7,55,0.00,CLR,,0.00,WeatherDisplay:10.37,2013-10-12 21:48:00,
2013-10-12 17:53:00,66.3,50.6,30.13,East,100,4.3,5.8,57,0.00,CLR,,0.00,WeatherDisplay:10.37,2013-10-12 21:53:00,
2013-10-12 17:59:00,66.1,50.4,30.13,ENE,62,3.7,6.9,57,0.00,CLR,,0.00,WeatherDisplay:10.37,2013-10-12 21:59:00,
2013-10-12 18:04:00,66.0,50.8,30.13,East,93,5.5,12.7,58,0.00,CLR,,0.00,WeatherDisplay:10.37,2013-10-12 22:04:00,
2013-10-12 18:09:00,65.6,50.9,30.13,ENE,66,2.0,3.5,59,0.00,CLR,,0.00,WeatherDisplay:10.37,2013-10-12 22:09:00,
2013-10-12 18:14:00,65.5,51.2,30.14,ENE,72,2.4,9.2,60,0.00,CLR,,0.00,WeatherDisplay:10.37,2013-10-12 22:14:00,
2013-10-12 18:19:00,65.2,51.4,30.14,ENE,73,1.7,5.8,61,0.00,CLR,,0.00,WeatherDisplay:10.37,2013-10-12 22:19:00,
2013-10-12 18:24:00,65.0,51.2,30.14,ENE,59,1.9,8.1,61,0.00,CLR,,0.00,WeatherDisplay:10.37,2013-10-12 22:24:00,
2013-10-12 18:29:00,64.7,51.4,30.14,East,90,2.4,5.8,62,0.00,CLR,,0.00,WeatherDisplay:10.37,2013-10-12 22:29:00,
2013-10-12 18:34:00,64.5,51.2,30.14,East,89,3.1,6.9,62,0.00,CLR,,0.00,WeatherDisplay:10.37,2013-10-12 22:34:00,
2013-10-12 18:39:00,64.5,51.2,30.14,ENE,73,4.1,10.4,62,0.00,CLR,,0.00,WeatherDisplay:10.37,2013-10-12 22:39:00,
2013-10-12 18:44:00,64.3,51.4,30.14,ENE,59,3.2,10.4,63,0.00,CLR,,0.00,WeatherDisplay:10.37,2013-10-12 22:44:00,
2013-10-12 18:49:00,64.2,51.8,30.14,ENE,75,1.5,6.0,64,0.00,CLR,,0.00,WeatherDisplay:10.37,2013-10-12 22:49:00,
2013-10-12 18:54:00,64.0,51.6,30.14,ENE,76,4.2,6.9,64,0.00,CLR,,0.00,WeatherDisplay:10.37,2013-10-12 22:54:00,
2013-10-12 18:59:00,64.0,52.0,30.14,East,83,3.4,6.9,65,0.00,CLR,,0.00,WeatherDisplay:10.37,2013-10-12 22:59:00,
2013-10-12 19:04:00,63.9,52.3,30.14,SE,136,4.1,11.5,66,0.00,CLR,,0.00,WeatherDisplay:10.37,2013-10-12 23:04:00,
2013-10-12 19:09:00,63.9,52.7,30.14,NE,48,3.9,11.5,67,0.00,CLR,,0.00,WeatherDisplay:10.37,2013-10-12 23:09:00,
2013-10-12 19:14:00,63.7,52.5,30.15,NE,48,2.7,5.8,67,0.00,CLR,,0.00,WeatherDisplay:10.37,2013-10-12 23:14:00,
2013-10-12 19:19:00,63.4,53.0,30.15,NE,52,3.0,5.8,69,0.00,CLR,,0.00,WeatherDisplay:10.37,2013-10-12 23:19:00,
2013-10-12 19:24:00,63.2,52.9,30.15,East,83,0.0,2.3,69,0.00,CLR,,0.00,WeatherDisplay:10.37,2013-10-12 23:24:00,
2013-10-12 19:29:00,62.9,53.4,30.15,ESE,103,3.9,5.8,71,0.00,CLR,,0.00,WeatherDisplay:10.37,2013-10-12 23:29:00,
2013-10-12 19:34:00,62.7,53.5,30.15,NE,55,2.9,5.8,72,0.00,CLR,,0.00,WeatherDisplay:10.37,2013-10-12 23:34:00,
2013-10-12 19:39:00,62.7,53.9,30.15,East,85,8.4,12.7,73,0.00,CLR,,0.00,WeatherDisplay:10.37,2013-10-12 23:39:00,
2013-10-12 19:44:00,62.7,54.3,30.15,East,83,4.2,11.5,74,0.00,CLR,,0.00,WeatherDisplay:10.37,2013-10-12 23:44:00,
2013-10-12 19:49:00,62.6,54.2,30.16,ENE,68,4.7,8.1,74,0.00,CLR,,0.00,WeatherDisplay:10.37,2013-10-12 23:49:00,
2013-10-12 19:54:00,62.4,54.4,30.16,NE,56,4.8,11.5,75,0.00,CLR,,0.00,WeatherDisplay:10.37,2013-10-12 23:54:00,
2013-10-12 19:59:00,62.3,54.3,30.16,East,90,5.9,11.5,75,0.00,CLR,,0.00,WeatherDisplay:10.37,2013-10-12 23:59:00,
2013-10-12 20:04:00,62.1,54.4,30.16,East,83,4.8,11.5,76,0.00,CLR,,0.00,WeatherDisplay:10.37,2013-10-13 00:04:00,
2013-10-12 20:09:00,62.0,54.7,30.16,NE,37,2.3,5.8,77,0.00,CLR,,0.00,WeatherDisplay:10.37,2013-10-13 00:09:00,
2013-10-12 20:14:00,62.0,54.7,30.17,ENE,58,0.7,3.5,77,0.00,CLR,,0.00,WeatherDisplay:10.37,2013-10-13 00:14:00,
2013-10-12 20:19:00,61.6,54.3,30.17,East,80,0.0,0.0,77,0.00,CLR,,0.00,WeatherDisplay:10.37,2013-10-13 00:19:00,
2013-10-12 20:24:00,61.5,54.6,30.17,ENE,75,0.0,2.3,78,0.00,CLR,,0.00,WeatherDisplay:10.37,2013-10-13 00:24:00,
2013-10-12 20:29:00,61.3,54.7,30.17,ENE,78,0.0,0.0,79,0.00,CLR,,0.00,WeatherDisplay:10.37,2013-10-13 00:29:00,
2013-10-12 20:34:00,61.2,54.6,30.17,East,82,0.0,1.2,79,0.00,CLR,,0.00,WeatherDisplay:10.37,2013-10-13 00:34:00,
2013-10-12 20:39:00,61.2,55.0,30.17,ENE,66,1.1,4.6,80,0.00,CLR,,0.00,WeatherDisplay:10.37,2013-10-13 00:39:00,
2013-10-12 20:44:00,61.0,54.8,30.18,ENE,58,0.0,0.0,80,0.00,CLR,,0.00,WeatherDisplay:10.37,2013-10-13 00:44:00,
2013-10-12 20:49:00,61.0,54.8,30.18,NE,45,4.3,5.8,80,0.00,CLR,,0.00,WeatherDisplay:10.37,2013-10-13 00:49:00,
2013-10-12 20:54:00,61.2,55.0,30.18,East,96,1.3,3.5,80,0.00,CLR,,0.00,WeatherDisplay:10.37,2013-10-13 00:54:00,
2013-10-12 20:59:00,61.2,55.0,30.18,NE,40,1.0,3.5,80,0.00,CLR,,0.00,WeatherDisplay:10.37,2013-10-13 00:59:00,
2013-10-12 21:04:00,61.2,55.0,30.17,East,88,1.6,3.5,80,0.00,CLR,,0.00,WeatherDisplay:10.37,2013-10-13 01:04:00,
2013-10-12 21:09:00,61.2,55.0,30.17,ENE,75,1.2,3.5,80,0.00,CLR,,0.00,WeatherDisplay:10.37,2013-10-13 01:09:00,
2013-10-12 21:14:00,61.3,54.7,30.18,ENE,78,3.7,10.4,79,0.00,CLR,,0.00,WeatherDisplay:10.37,2013-10-13 01:14:00,
2013-10-12 21:19:00,61.2,54.6,30.18,NE,44,2.9,6.9,79,0.00,CLR,,0.00,WeatherDisplay:10.37,2013-10-13 01:19:00,
2013-10-12 21:24:00,61.2,54.6,30.18,East,90,1.1,5.8,79,0.00,CLR,,0.00,WeatherDisplay:10.37,2013-10-13 01:24:00,
2013-10-12 21:29:00,61.2,54.6,30.18,NE,51,6.1,9.2,79,0.00,CLR,,0.00,WeatherDisplay:10.37,2013-10-13 01:29:00,
2013-10-12 21:34:00,61.2,54.6,30.18,East,88,3.9,6.9,79,0.00,CLR,,0.00,WeatherDisplay:10.37,2013-10-13 01:34:00,
2013-10-12 21:39:00,61.2,54.6,30.18,NE,44,4.4,12.7,79,0.00,CLR,,0.00,WeatherDisplay:10.37,2013-10-13 01:39:00,
2013-10-12 21:44:00,61.2,54.6,30.18,ENE,62,3.1,8.1,79,0.00,CLR,,0.00,WeatherDisplay:10.37,2013-10-13 01:44:00,
2013-10-12 21:49:00,61.2,54.6,30.18,ENE,66,1.1,3.5,79,0.00,CLR,,0.00,WeatherDisplay:10.37,2013-10-13 01:49:00,
2013-10-12 21:54:00,61.2,54.6,30.18,East,83,3.8,11.5,79,0.00,CLR,,0.00,WeatherDisplay:10.37,2013-10-13 01:54:00,
2013-10-12 21:58:00,61.2,54.6,30.19,East,80,1.7,3.5,79,0.00,CLR,,0.00,WeatherDisplay:10.37,2013-10-13 01:58:00,
2013-10-12 22:03:00,61.2,54.6,30.18,ENE,62,0.9,8.1,79,0.00,CLR,,0.00,WeatherDisplay:10.37,2013-10-13 02:03:00,
2013-10-12 22:08:00,61.2,54.3,30.18,East,89,6.7,11.5,78,0.00,CLR,,0.00,WeatherDisplay:10.37,2013-10-13 02:08:00,
2013-10-12 22:13:00,61.2,54.3,30.18,SSE,155,6.7,11.5,78,0.00,CLR,,0.00,WeatherDisplay:10.37,2013-10-13 02:13:00,
2013-10-12 22:18:00,61.2,53.9,30.18,ENE,76,4.9,11.5,77,0.00,CLR,,0.00,WeatherDisplay:10.37,2013-10-13 02:18:00,
2013-10-12 22:23:00,61.2,53.9,30.19,East,80,2.3,8.1,77,0.00,CLR,,0.00,WeatherDisplay:10.37,2013-10-13 02:23:00,
2013-10-12 22:28:00,61.0,53.7,30.19,ESE,123,2.1,6.0,77,0.00,CLR,,0.00,WeatherDisplay:10.37,2013-10-13 02:28:00,
2013-10-12 22:33:00,60.9,53.6,30.19,ENE,75,4.9,6.9,77,0.00,CLR,,0.00,WeatherDisplay:10.37,2013-10-13 02:33:00,
2013-10-12 22:38:00,60.7,53.4,30.19,NE,48,4.6,10.4,77,0.00,CLR,,0.00,WeatherDisplay:10.37,2013-10-13 02:38:00,
2013-10-12 22:43:00,60.5,53.3,30.19,East,96,4.1,5.8,77,0.00,CLR,,0.00,WeatherDisplay:10.37,2013-10-13 02:43:00,
2013-10-12 22:48:00,60.4,53.2,30.19,ENE,73,2.7,8.1,77,0.00,CLR,,0.00,WeatherDisplay:10.37,2013-10-13 02:48:00,
2013-10-12 22:53:00,60.2,53.0,30.19,NNE,31,7.5,13.8,77,0.00,CLR,,0.00,WeatherDisplay:10.37,2013-10-13 02:53:00,
2013-10-12 22:58:00,60.2,53.0,30.20,NE,47,3.5,12.7,77,0.00,CLR,,0.00,WeatherDisplay:10.37,2013-10-13 02:58:00,
2013-10-12 23:03:00,60.1,52.9,30.19,East,89,3.5,11.5,77,0.00,CLR,,0.00,WeatherDisplay:10.37,2013-10-13 03:03:00,
2013-10-12 23:08:00,60.1,52.9,30.19,ENE,78,7.0,11.5,77,0.00,CLR,,0.00,WeatherDisplay:10.37,2013-10-13 03:08:00,
2013-10-12 23:13:00,59.9,52.7,30.19,North,6,2.9,8.1,77,0.00,CLR,,0.00,WeatherDisplay:10.37,2013-10-13 03:13:00,
2013-10-12 23:18:00,59.9,52.7,30.19,ENE,76,5.0,11.5,77,0.00,CLR,,0.00,WeatherDisplay:10.37,2013-10-13 03:18:00,
2013-10-12 23:23:00,59.8,52.6,30.19,East,79,1.8,5.8,77,0.00,CLR,,0.00,WeatherDisplay:10.37,2013-10-13 03:23:00,
2013-10-12 23:28:00,59.6,52.4,30.19,ENE,75,2.8,5.8,77,0.00,CLR,,0.00,WeatherDisplay:10.37,2013-10-13 03:28:00,
2013-10-12 23:33:00,59.6,52.4,30.20,East,100,1.7,4.6,77,0.00,CLR,,0.00,WeatherDisplay:10.37,2013-10-13 03:33:00,
2013-10-12 23:38:00,59.5,52.3,30.20,ENE,75,3.7,6.9,77,0.00,CLR,,0.00,WeatherDisplay:10.37,2013-10-13 03:38:00,
2013-10-12 23:43:00,59.3,52.1,30.20,ENE,73,1.6,4.6,77,0.00,CLR,,0.00,WeatherDisplay:10.37,2013-10-13 03:43:00,
2013-10-12 23:48:00,59.3,52.1,30.20,ENE,75,3.7,13.8,77,0.00,CLR,,0.00,WeatherDisplay:10.37,2013-10-13 03:48:00,
2013-10-12 23:53:00,59.2,52.0,30.20,ENE,75,1.6,4.0,77,0.00,CLR,,0.00,WeatherDisplay:10.37,2013-10-13 03:53:00,
2013-10-12 23:58:00,59.0,52.1,30.20,ENE,64,0.0,0.0,78,0.00,CLR,,0.00,WeatherDisplay:10.37,2013-10-13 03:58:00,